C/2012 X1 ( LINEAR )

Japanese version
Home page
Updated on April 13, 2013

---------------------------------------------------------------------

* Profile

Discovery Date December 8, 2012
Magnitude 19.4 mag
Discoverer Lincoln Laboratory Near-Earth Asteroid Research project

* Pictures

* Orbital Elements

Epoch 2014 Mar. 4.0 TT = JDT 2456720.5
T 2014 Feb. 21.64150 TT                                 MPC
q   1.5989518            (2000.0)            P               Q
z  +0.0064823      Peri.  132.11340     -0.22402789     +0.73239793
 +/-0.0000097      Node   113.14588     -0.96332269     -0.26640849
e   0.9896352      Incl.   44.36689     +0.14771896     -0.62659380
From 438 observations 2012 Dec. 8-2013 Apr. 2, mean residual 0".5.

* Finding Charts

* Magnitudes Graph

        m1 = 8.0 + 5 log d + 10.0 log r

---------------------------------------------------------------------

The orbital elements are published on M.P.E.C. 2013-G31.
The charts are made with StellaNavigator Ver.8 (AstroArts).
The magnitudes graphs are made with Comet for Windows.

---------------------------------------------------------------------

Copyright(C) Seiichi Yoshida (comet@aerith.net). All rights reserved.